Location: Guayaquil
(2.1667°S, 79.9000°W)
Time: 19:52:56
(UTC-05:00)

OTV 5 (USA 277) - Pass Details

Date: 21 July 2018
Orbit: 339 x 348 km, 54.5° (Epoch: 14 November)

Event Time Altitude Azimuth Distance (km) Brightness Sun altitude
Exits shadow 04:42:21 21° 88° (E) 846 ? -25.0°
Drops below altitude 10° 04:43:52 10° 63° (ENE) 1,307 ? -24.6°
Sets 04:46:02 0° 50° (NE) 2,143 ? -24.1°
